Location: Cran-Gévrier
(45.9039°N, 6.1012°E)
Time: 03:23:38
(UTC+00:00)

DIWATA 2B (PO-101) - Pass Details

Date: 10 December 2023
Orbit: 576 x 590 km, 98.1° (Epoch: 21 February)

Event Time Altitude Azimuth Distance (km) Brightness Sun altitude
Rises 17:12:43 0° 352° (N) 2,841 ? -13.7°
Reaches altitude 10° 17:16:41 10° 315° (NW) 1,933 ? -14.3°
Maximum altitude 17:17:34 11° 302° (WNW) 1,891 ? -14.5°
Drops below altitude 10° 17:18:28 10° 290° (WNW) 1,930 ? -14.6°
Sets 17:22:25 0° 251° (WSW) 2,823 ? -15.3°
